This demonstration page uses our WeatherBlox Daily Observations layout. Learn more.

Left ArrowRight Arrow

47.50024, -111.30081

Hourly Observations for April 24, 2019

Temp ( °F °C ) Dew Point ( °F °C ) Humidity (%) Winds ( mph kmh ) Pressure ( in mb ) Visibility ( mi km ) Precip ( " mm )
12:53 am 00:53 Mostly Cloudy 53 11.7 40 4.4 61 61 SW 14 22 29.89 1012 10 16 0.00 0.00
1:53 am 01:53 Mostly Clear 50 10 40 4.4 68 68 SW 14 22 29.89 1012 10 16 0.00 0.00
2:53 am 02:53 Cloudy 52 11.1 38 3.3 59 59 NW 13 20 29.91 1013 10 16 0.00 0.00
3:53 am 03:53 Cloudy 46 7.8 37 2.8 71 71 NNW 10 17 29.93 1013 10 16 0.00 0.00
4:53 am 04:53 Cloudy 45 7.2 38 3.3 77 77 NW 8 13 29.96 1014 10 16 0.00 0.00
5:53 am 05:53 Cloudy 42 5.6 38 3.3 85 85 SSW 7 11 29.98 1015 10 16 0.00 0.00
6:53 am 06:53 Mostly Cloudy 43 6.1 39 3.9 86 86 SSW 7 11 29.98 1015 10 16 0.00 0.00
7:53 am 07:53 Mostly Cloudy 47 8.3 39 3.9 74 74 SSW 8 13 29.98 1015 10 16 0.00 0.00
8:53 am 08:53 Cloudy 49 9.4 39 3.9 69 69 SW 6 9 29.98 1015 10 16 0.00 0.00
9:53 am 09:53 Sunny 53 11.7 38 3.3 57 57 VRB 5 7 29.97 1015 10 16 0.00 0.00
10:53 am 10:53 Mostly Sunny 55 12.8 39 3.9 55 55 VRB 5 7 29.95 1014 10 16 0.00 0.00
11:53 am 11:53 Mostly Cloudy 57 13.9 38 3.3 49 49 W 7 11 29.95 1014 10 16 0.00 0.00
12:53 pm 12:53 Sunny 59 15 39 3.9 48 48 N 14 22 29.94 1014 10 16 0.00 0.00
1:53 pm 13:53 Partly Cloudy 60 15.6 38 3.3 44 44 NNW 13 20 29.94 1014 10 16 0.00 0.00
2:53 pm 14:53 Mostly Cloudy with Light Rain 60 15.6 32 0 35 35 NW 22 35 29.93 1014 10 16 0.00 0.03
3:43 pm 15:43 Mostly Sunny 59 15 36 2.2 42 42 NNW 13 20 29.85 1011 10 16 0.00 0.03
3:53 pm 15:53 Partly Cloudy 61 16.1 34 1.1 36 36 NNW 14 22 29.94 1014 10 16 0.00 0.03
4:53 pm 16:53 Mostly Cloudy 64 17.8 22 -5.6 20 20 W 15 24 29.93 1014 10 16 0.00 0.00
5:53 pm 17:53 Mostly Sunny 61 16.1 21 -6.1 21 21 W 14 22 29.95 1014 10 16 0.00 0.00
6:53 pm 18:53 Sunny 60 15.6 19 -7.2 20 20 NW 17 28 29.96 1015 10 16 0.00 0.00
7:53 pm 19:53 Sunny 56 13.3 22 -5.6 27 27 NW 10 17 29.99 1016 10 16 0.00 0.00
8:53 pm 20:53 Clear 48 8.9 28 -2.2 46 46 WNW 10 17 30.04 1017 10 16 0.00 0.00
9:53 pm 21:53 Clear 45 7.2 28 -2.2 52 52 WNW 8 13 30.07 1018 10 16 0.00 0.00
10:53 pm 22:53 Clear 41 5 27 -2.8 57 57 W 9 15 30.10 1019 10 16 0.00 0.00
11:53 pm 23:53 Clear 38 3.3 26 -3.3 62 62 W 10 17 30.11 1020 10 16 0.00 0.00

Powered by AerisWeather